| time (UTC) | temp F | wind direction | speed MPH | gust MPH | rain 1hr in | rain 24hr in | rain mn in | humidity % | barometer mb |
| 20260504081646 | 70 | 138 | 6.0 | 10.0 | 0.00 | 0.00 | 0.00 | 44 | 991.3 |
| 20260504081246 | 70 | 116 | 4.0 | 8.0 | 0.00 | 0.00 | 0.00 | 45 | 991.2 |
| 20260504080844 | 70 | 167 | 5.0 | 9.0 | 0.00 | 0.00 | 0.00 | 44 | 991.2 |
| 20260504080513 | 70 | 167 | 4.0 | 8.0 | 0.00 | 0.00 | 0.00 | 44 | 991.2 |
| 20260504080441 | 70 | 115 | 2.0 | 5.0 | 0.00 | 0.00 | 0.00 | 44 | 991.2 |
| 20260504060133 | 64 | 111 | 2.0 | 6.0 | 0.00 | 0.00 | 0.00 | 47 | 991.0 |
| 20260504050402 | 61 | 120 | 3.0 | 6.0 | 0.00 | 0.00 | 0.00 | 48 | 990.6 |
| 20260504050003 | 61 | 141 | 4.0 | 7.0 | 0.00 | 0.00 | 0.00 | 48 | 990.6 |
| 20260504045602 | 61 | 136 | 2.0 | 6.0 | 0.00 | 0.00 | 0.00 | 49 | 990.5 |
| 20260504045202 | 60 | 126 | 3.0 | 6.0 | 0.00 | 0.00 | 0.00 | 49 | 990.5 |
| 20260504044800 | 60 | 118 | 3.0 | 5.0 | 0.00 | 0.00 | 0.00 | 49 | 990.5 |
| 20260504044629 | 60 | 136 | 4.0 | 9.0 | 0.00 | 0.00 | 0.00 | 49 | 990.4 |
| 20260504044400 | 60 | 124 | 4.0 | 8.0 | 0.00 | 0.00 | 0.00 | 49 | 990.4 |
| 20260504044000 | 60 | 136 | 4.0 | 9.0 | 0.00 | 0.00 | 0.00 | 49 | 990.4 |
| 20260504043157 | 59 | 120 | 4.0 | 8.0 | 0.00 | 0.00 | 0.00 | 49 | 990.4 |
| 20260504042755 | 59 | 115 | 4.0 | 8.0 | 0.00 | 0.00 | 0.00 | 49 | 990.4 |
| 20260504042627 | 59 | 122 | 4.0 | 7.0 | 0.00 | 0.00 | 0.00 | 49 | 990.4 |
| 20260504042355 | 59 | 122 | 4.0 | 7.0 | 0.00 | 0.00 | 0.00 | 49 | 990.4 |
| 20260504041955 | 59 | 118 | 4.0 | 7.0 | 0.00 | 0.00 | 0.00 | 49 | 990.3 |
| 20260504041555 | 59 | 131 | 5.0 | 7.0 | 0.00 | 0.00 | 0.00 | 49 | 990.3 |
| 20260504041155 | 59 | 127 | 3.0 | 5.0 | 0.00 | 0.00 | 0.00 | 49 | 990.3 |
| 20260504040753 | 58 | 131 | 3.0 | 6.0 | 0.00 | 0.00 | 0.00 | 50 | 990.3 |
| 20260504040353 | 58 | 127 | 3.0 | 5.0 | 0.00 | 0.00 | 0.00 | 50 | 990.3 |
| 20260504035953 | 58 | 111 | 3.0 | 9.0 | 0.00 | 0.00 | 0.00 | 50 | 990.3 |
| 20260504035546 | 58 | 116 | 3.0 | 7.0 | 0.00 | 0.00 | 0.00 | 50 | 990.3 |
| 20260504035145 | 58 | 112 | 4.0 | 7.0 | 0.00 | 0.00 | 0.00 | 50 | 990.3 |
| 20260504034742 | 58 | 128 | 3.0 | 5.0 | 0.00 | 0.00 | 0.00 | 50 | 990.3 |
| 20260504034341 | 58 | 122 | 5.0 | 8.0 | 0.00 | 0.00 | 0.00 | 50 | 990.3 |
| 20260504033941 | 58 | 117 | 3.0 | 6.0 | 0.00 | 0.00 | 0.00 | 49 | 990.3 |
| 20260504033541 | 58 | 117 | 3.0 | 5.0 | 0.00 | 0.00 | 0.00 | 49 | 990.3 |
| 20260504033141 | 58 | 120 | 4.0 | 8.0 | 0.00 | 0.00 | 0.00 | 50 | 990.2 |
| 20260504032337 | 58 | 135 | 4.0 | 8.0 | 0.00 | 0.00 | 0.00 | 49 | 990.3 |
| 20260504031937 | 58 | 121 | 5.0 | 9.0 | 0.00 | 0.00 | 0.00 | 49 | 990.2 |
| 20260504031537 | 58 | 132 | 5.0 | 12.0 | 0.00 | 0.00 | 0.00 | 49 | 990.3 |
| 20260504031136 | 58 | 141 | 5.0 | 9.0 | 0.00 | 0.00 | 0.00 | 49 | 990.3 |
| 20260504030735 | 58 | 131 | 4.0 | 10.0 | 0.00 | 0.00 | 0.00 | 49 | 990.3 |
| 20260504030334 | 58 | 143 | 4.0 | 9.0 | 0.00 | 0.00 | 0.00 | 49 | 990.3 |
| 20260504025935 | 58 | 124 | 3.0 | 5.0 | 0.00 | 0.00 | 0.00 | 49 | 990.3 |
| 20260504025535 | 58 | 131 | 5.0 | 11.0 | 0.00 | 0.00 | 0.00 | 49 | 990.3 |
| 20260504025135 | 58 | 131 | 4.0 | 7.0 | 0.00 | 0.00 | 0.00 | 49 | 990.4 |
| 20260504024732 | 58 | 131 | 4.0 | 6.0 | 0.00 | 0.00 | 0.00 | 48 | 990.3 |
| 20260504024332 | 58 | 124 | 4.0 | 6.0 | 0.00 | 0.00 | 0.00 | 48 | 990.3 |
| 20260504023932 | 58 | 128 | 4.0 | 6.0 | 0.00 | 0.00 | 0.00 | 48 | 990.3 |
| 20260504023532 | 58 | 124 | 4.0 | 8.0 | 0.00 | 0.00 | 0.00 | 48 | 990.3 |
| 20260504023353 | 58 | 126 | 5.0 | 8.0 | 0.00 | 0.00 | 0.00 | 48 | 990.4 |
| 20260504023132 | 58 | 126 | 5.0 | 8.0 | 0.00 | 0.00 | 0.00 | 48 | 990.4 |
| 20260504022730 | 58 | 130 | 5.0 | 10.0 | 0.00 | 0.00 | 0.00 | 48 | 990.4 |
| 20260504022542 | 58 | 136 | 6.0 | 10.0 | 0.00 | 0.00 | 0.00 | 48 | 990.4 |
| 20260504022330 | 58 | 136 | 6.0 | 10.0 | 0.00 | 0.00 | 0.00 | 48 | 990.4 |
| 20260504021930 | 58 | 130 | 4.0 | 9.0 | 0.00 | 0.00 | 0.00 | 48 | 990.4 |
| 20260504021528 | 58 | 134 | 5.0 | 8.0 | 0.00 | 0.00 | 0.00 | 48 | 990.4 |
| 20260504021128 | 58 | 123 | 6.0 | 11.0 | 0.00 | 0.00 | 0.00 | 48 | 990.5 |
| 20260504020725 | 58 | 127 | 5.0 | 11.0 | 0.00 | 0.00 | 0.00 | 48 | 990.5 |
| 20260504020325 | 58 | 132 | 4.0 | 6.0 | 0.00 | 0.00 | 0.00 | 48 | 990.5 |
| 20260504015925 | 58 | 131 | 6.0 | 10.0 | 0.00 | 0.00 | 0.00 | 48 | 990.6 |
| 20260504015525 | 58 | 135 | 4.0 | 8.0 | 0.00 | 0.00 | 0.00 | 48 | 990.5 |
| 20260504015207 | 58 | 131 | 3.0 | 6.0 | 0.00 | 0.00 | 0.00 | 47 | 990.5 |
| 20260504015126 | 58 | 131 | 3.0 | 6.0 | 0.00 | 0.00 | 0.00 | 47 | 990.5 |
| 20260504014724 | 58 | 116 | 5.0 | 12.0 | 0.00 | 0.00 | 0.00 | 47 | 990.5 |
| 20260504014324 | 58 | 123 | 5.0 | 7.0 | 0.00 | 0.00 | 0.00 | 47 | 990.5 |
| 20260504013924 | 58 | 121 | 4.0 | 7.0 | 0.00 | 0.00 | 0.00 | 47 | 990.5 |
| 20260504013600 | 58 | 131 | 4.0 | 12.0 | 0.00 | 0.00 | 0.00 | 47 | 990.5 |
| 20260504013524 | 58 | 131 | 4.0 | 12.0 | 0.00 | 0.00 | 0.00 | 47 | 990.5 |
| 20260504013124 | 58 | 124 | 4.0 | 8.0 | 0.00 | 0.00 | 0.00 | 47 | 990.6 |
| 20260504012714 | 58 | 135 | 4.0 | 8.0 | 0.00 | 0.00 | 0.00 | 47 | 990.6 |
| 20260504012313 | 59 | 137 | 4.0 | 9.0 | 0.00 | 0.00 | 0.00 | 47 | 990.7 |
| 20260504011913 | 59 | 121 | 4.0 | 7.0 | 0.00 | 0.00 | 0.00 | 47 | 990.7 |
| 20260504011512 | 59 | 131 | 4.0 | 9.0 | 0.00 | 0.00 | 0.00 | 47 | 990.7 |
| 20260504011112 | 59 | 129 | 3.0 | 7.0 | 0.00 | 0.00 | 0.00 | 47 | 990.7 |
| 20260504010710 | 59 | 127 | 4.0 | 7.0 | 0.00 | 0.00 | 0.00 | 47 | 990.7 |
| 20260504010308 | 59 | 137 | 4.0 | 9.0 | 0.00 | 0.00 | 0.00 | 46 | 990.7 |
| 20260504010050 | 59 | 147 | 3.0 | 6.0 | 0.00 | 0.00 | 0.00 | 46 | 990.7 |
| 20260504005908 | 59 | 147 | 3.0 | 6.0 | 0.00 | 0.00 | 0.00 | 46 | 990.7 |
| 20260504005508 | 59 | 140 | 3.0 | 5.0 | 0.00 | 0.00 | 0.00 | 46 | 990.7 |
| 20260504005300 | 59 | 135 | 4.0 | 8.0 | 0.00 | 0.00 | 0.00 | 46 | 990.7 |
| 20260504005108 | 59 | 135 | 4.0 | 8.0 | 0.00 | 0.00 | 0.00 | 46 | 990.7 |
| 20260504004706 | 59 | 144 | 4.0 | 8.0 | 0.00 | 0.00 | 0.00 | 46 | 990.7 |
| 20260504004643 | 59 | 134 | 5.0 | 8.0 | 0.00 | 0.00 | 0.00 | 46 | 990.7 |
| 20260504004306 | 59 | 130 | 5.0 | 8.0 | 0.00 | 0.00 | 0.00 | 46 | 990.7 |
| 20260504004240 | 59 | 142 | 4.0 | 6.0 | 0.00 | 0.00 | 0.00 | 46 | 990.7 |
| 20260504003906 | 59 | 134 | 5.0 | 9.0 | 0.00 | 0.00 | 0.00 | 46 | 990.7 |
| 20260504003506 | 59 | 134 | 5.0 | 8.0 | 0.00 | 0.00 | 0.00 | 46 | 990.7 |
| 20260504003106 | 59 | 142 | 4.0 | 6.0 | 0.00 | 0.00 | 0.00 | 46 | 990.7 |
| 20260504003054 | 59 | 135 | 3.0 | 8.0 | 0.00 | 0.00 | 0.00 | 46 | 990.8 |
| 20260504003045 | 59 | 125 | 5.0 | 7.0 | 0.00 | 0.00 | 0.00 | 46 | 990.7 |
| 20260504002704 | 59 | 135 | 3.0 | 8.0 | 0.00 | 0.00 | 0.00 | 46 | 990.8 |
| 20260504002304 | 59 | 132 | 4.0 | 6.0 | 0.00 | 0.00 | 0.00 | 46 | 990.7 |
| 20260504001904 | 59 | 125 | 5.0 | 7.0 | 0.00 | 0.00 | 0.00 | 46 | 990.7 |
| 20260504001504 | 59 | 141 | 4.0 | 9.0 | 0.00 | 0.00 | 0.00 | 46 | 990.7 |
| 20260504001104 | 59 | 136 | 4.0 | 7.0 | 0.00 | 0.00 | 0.00 | 46 | 990.7 |
| 20260504000702 | 59 | 132 | 3.0 | 8.0 | 0.00 | 0.00 | 0.00 | 46 | 990.7 |
| 20260504000302 | 59 | 139 | 4.0 | 9.0 | 0.00 | 0.00 | 0.00 | 46 | 990.8 |
| 20260503235902 | 59 | 138 | 4.0 | 7.0 | 0.00 | 0.00 | 0.00 | 46 | 990.8 |
| 20260503235740 | 60 | 120 | 3.0 | 6.0 | 0.00 | 0.00 | 0.00 | 46 | 990.8 |
| 20260503235500 | 60 | 120 | 3.0 | 6.0 | 0.00 | 0.00 | 0.00 | 46 | 990.8 |
| 20260503235211 | 60 | 130 | 4.0 | 6.0 | 0.00 | 0.00 | 0.00 | 46 | 990.9 |
| 20260503235101 | 60 | 122 | 4.0 | 8.0 | 0.00 | 0.00 | 0.00 | 46 | 990.9 |
| 20260503234658 | 60 | 130 | 4.0 | 6.0 | 0.00 | 0.00 | 0.00 | 46 | 990.9 |
| 20260503234426 | 60 | 135 | 4.0 | 8.0 | 0.00 | 0.00 | 0.00 | 46 | 990.9 |
| 20260503234258 | 60 | 135 | 4.0 | 8.0 | 0.00 | 0.00 | 0.00 | 46 | 990.9 |
| 20260503233858 | 60 | 124 | 3.0 | 5.0 | 0.00 | 0.00 | 0.00 | 45 | 990.9 |
| 20260503233458 | 60 | 131 | 4.0 | 7.0 | 0.00 | 0.00 | 0.00 | 45 | 991.0 |
| 20260503233329 | 61 | 149 | 3.0 | 8.0 | 0.00 | 0.00 | 0.00 | 45 | 990.9 |
| 20260503233058 | 61 | 149 | 3.0 | 8.0 | 0.00 | 0.00 | 0.00 | 45 | 990.9 |
| 20260503232741 | 61 | 135 | 5.0 | 10.0 | 0.00 | 0.00 | 0.00 | 45 | 991.0 |
| 20260503232656 | 61 | 135 | 5.0 | 10.0 | 0.00 | 0.00 | 0.00 | 45 | 991.0 |
| 20260503232256 | 61 | 136 | 4.0 | 6.0 | 0.00 | 0.00 | 0.00 | 45 | 991.0 |
| 20260503231856 | 61 | 152 | 4.0 | 9.0 | 0.00 | 0.00 | 0.00 | 45 | 991.0 |
| 20260503231456 | 61 | 139 | 5.0 | 8.0 | 0.00 | 0.00 | 0.00 | 45 | 991.0 |
| 20260503231056 | 61 | 144 | 6.0 | 10.0 | 0.00 | 0.00 | 0.00 | 45 | 991.0 |
| 20260503231027 | 61 | 144 | 5.0 | 9.0 | 0.00 | 0.00 | 0.00 | 45 | 991.1 |
| 20260503230654 | 61 | 144 | 5.0 | 9.0 | 0.00 | 0.00 | 0.00 | 45 | 991.1 |
| 20260503230254 | 61 | 142 | 5.0 | 12.0 | 0.00 | 0.00 | 0.00 | 45 | 991.1 |
| 20260503230055 | 61 | 144 | 5.0 | 10.0 | 0.00 | 0.00 | 0.00 | 45 | 991.1 |
| 20260503225854 | 61 | 144 | 5.0 | 10.0 | 0.00 | 0.00 | 0.00 | 45 | 991.1 |
| 20260503225447 | 61 | 138 | 6.0 | 8.0 | 0.00 | 0.00 | 0.00 | 45 | 991.1 |
| 20260503225122 | 61 | 163 | 4.0 | 7.0 | 0.00 | 0.00 | 0.00 | 45 | 991.1 |
| 20260503225046 | 61 | 163 | 4.0 | 7.0 | 0.00 | 0.00 | 0.00 | 45 | 991.1 |
| 20260503224716 | 61 | 154 | 4.0 | 8.0 | 0.00 | 0.00 | 0.00 | 45 | 991.2 |
| 20260503224240 | 62 | 141 | 4.0 | 9.0 | 0.00 | 0.00 | 0.00 | 45 | 991.2 |
| 20260503224016 | 62 | 145 | 5.0 | 11.0 | 0.00 | 0.00 | 0.00 | 44 | 991.2 |
| 20260503223840 | 62 | 145 | 5.0 | 11.0 | 0.00 | 0.00 | 0.00 | 44 | 991.2 |
| 20260503223715 | 62 | 165 | 4.0 | 8.0 | 0.00 | 0.00 | 0.00 | 44 | 991.2 |
| 20260503223440 | 62 | 165 | 4.0 | 8.0 | 0.00 | 0.00 | 0.00 | 44 | 991.2 |
| 20260503223040 | 62 | 147 | 3.0 | 6.0 | 0.00 | 0.00 | 0.00 | 44 | 991.2 |
| 20260503222638 | 62 | 153 | 4.0 | 10.0 | 0.00 | 0.00 | 0.00 | 44 | 991.2 |
| 20260503222238 | 62 | 153 | 6.0 | 10.0 | 0.00 | 0.00 | 0.00 | 44 | 991.2 |
| 20260503221838 | 62 | 150 | 5.0 | 7.0 | 0.00 | 0.00 | 0.00 | 44 | 991.2 |
| 20260503221438 | 62 | 148 | 4.0 | 7.0 | 0.00 | 0.00 | 0.00 | 44 | 991.2 |
| 20260503221038 | 62 | 141 | 4.0 | 8.0 | 0.00 | 0.00 | 0.00 | 44 | 991.2 |
| 20260503220636 | 62 | 149 | 5.0 | 8.0 | 0.00 | 0.00 | 0.00 | 44 | 991.2 |
| 20260503220540 | 63 | 136 | 5.0 | 9.0 | 0.00 | 0.00 | 0.00 | 44 | 991.2 |
| 20260503220236 | 63 | 136 | 5.0 | 9.0 | 0.00 | 0.00 | 0.00 | 44 | 991.2 |
| 20260503220009 | 63 | 137 | 5.0 | 10.0 | 0.00 | 0.00 | 0.00 | 44 | 991.3 |
| 20260503215836 | 63 | 137 | 5.0 | 10.0 | 0.00 | 0.00 | 0.00 | 44 | 991.3 |
| 20260503215638 | 63 | 141 | 4.0 | 9.0 | 0.00 | 0.00 | 0.00 | 44 | 991.3 |
| 20260503215437 | 63 | 141 | 4.0 | 9.0 | 0.00 | 0.00 | 0.00 | 44 | 991.3 |
| 20260503215037 | 63 | 138 | 4.0 | 7.0 | 0.00 | 0.00 | 0.00 | 44 | 991.3 |
| 20260503214940 | 63 | 145 | 6.0 | 14.0 | 0.00 | 0.00 | 0.00 | 44 | 991.3 |
| 20260503214635 | 63 | 145 | 4.0 | 7.0 | 0.00 | 0.00 | 0.00 | 44 | 991.3 |
| 20260503214235 | 63 | 145 | 6.0 | 14.0 | 0.00 | 0.00 | 0.00 | 44 | 991.3 |
| 20260503213835 | 63 | 136 | 4.0 | 8.0 | 0.00 | 0.00 | 0.00 | 45 | 991.3 |
| 20260503213432 | 63 | 152 | 6.0 | 11.0 | 0.00 | 0.00 | 0.00 | 45 | 991.3 |
| 20260503213032 | 63 | 146 | 3.0 | 10.0 | 0.00 | 0.00 | 0.00 | 45 | 991.3 |
| 20260503212630 | 63 | 161 | 3.0 | 7.0 | 0.00 | 0.00 | 0.00 | 45 | 991.3 |
| 20260503212230 | 64 | 133 | 3.0 | 9.0 | 0.00 | 0.00 | 0.00 | 45 | 991.4 |
| 20260503211830 | 64 | 150 | 3.0 | 6.0 | 0.00 | 0.00 | 0.00 | 45 | 991.4 |
| 20260503211430 | 64 | 140 | 3.0 | 8.0 | 0.00 | 0.00 | 0.00 | 45 | 991.3 |
| 20260503211030 | 64 | 124 | 6.0 | 9.0 | 0.00 | 0.00 | 0.00 | 45 | 991.4 |
| 20260503210628 | 64 | 150 | 4.0 | 12.0 | 0.00 | 0.00 | 0.00 | 45 | 991.4 |
| 20260503210228 | 64 | 154 | 5.0 | 8.0 | 0.00 | 0.00 | 0.00 | 44 | 991.4 |
| 20260503205825 | 64 | 162 | 4.0 | 8.0 | 0.00 | 0.00 | 0.00 | 44 | 991.4 |
| 20260503205025 | 65 | 155 | 5.0 | 9.0 | 0.00 | 0.00 | 0.00 | 44 | 991.5 |
| 20260503204623 | 65 | 140 | 6.0 | 11.0 | 0.00 | 0.00 | 0.00 | 44 | 991.5 |
| 20260503204223 | 65 | 136 | 4.0 | 9.0 | 0.00 | 0.00 | 0.00 | 44 | 991.5 |
| 20260503203822 | 65 | 134 | 5.0 | 10.0 | 0.00 | 0.00 | 0.00 | 44 | 991.5 |
| 20260503203422 | 65 | 137 | 5.0 | 10.0 | 0.00 | 0.00 | 0.00 | 44 | 991.6 |
| 20260503203022 | 65 | 143 | 7.0 | 13.0 | 0.00 | 0.00 | 0.00 | 44 | 991.6 |
| 20260503202210 | 65 | 165 | 3.0 | 6.0 | 0.00 | 0.00 | 0.00 | 43 | 991.6 |
| 20260503201809 | 66 | 154 | 5.0 | 10.0 | 0.00 | 0.00 | 0.00 | 43 | 991.7 |
| 20260503201408 | 66 | 150 | 6.0 | 12.0 | 0.00 | 0.00 | 0.00 | 43 | 991.7 |
| 20260503201008 | 66 | 159 | 4.0 | 8.0 | 0.00 | 0.00 | 0.00 | 43 | 991.7 |
| 20260503200606 | 66 | 166 | 5.0 | 9.0 | 0.00 | 0.00 | 0.00 | 43 | 991.7 |
| 20260503200206 | 66 | 151 | 5.0 | 13.0 | 0.00 | 0.00 | 0.00 | 43 | 991.7 |
| 20260503200040 | 66 | 157 | 5.0 | 11.0 | 0.00 | 0.00 | 0.00 | 43 | 991.8 |
| 20260503195806 | 66 | 157 | 5.0 | 11.0 | 0.00 | 0.00 | 0.00 | 43 | 991.8 |
| 20260503195406 | 66 | 158 | 6.0 | 12.0 | 0.00 | 0.00 | 0.00 | 43 | 991.8 |
| 20260503195006 | 66 | 160 | 4.0 | 9.0 | 0.00 | 0.00 | 0.00 | 43 | 991.8 |
| 20260503194604 | 66 | 143 | 4.0 | 7.0 | 0.00 | 0.00 | 0.00 | 43 | 991.8 |
| 20260503194204 | 66 | 152 | 5.0 | 9.0 | 0.00 | 0.00 | 0.00 | 43 | 991.8 |
| 20260503193804 | 67 | 171 | 6.0 | 11.0 | 0.00 | 0.00 | 0.00 | 42 | 991.8 |
| 20260503193404 | 67 | 152 | 4.0 | 10.0 | 0.00 | 0.00 | 0.00 | 42 | 991.8 |
| 20260503193004 | 67 | 143 | 5.0 | 9.0 | 0.00 | 0.00 | 0.00 | 42 | 991.8 |
| 20260503192602 | 67 | 140 | 4.0 | 9.0 | 0.00 | 0.00 | 0.00 | 42 | 991.8 |
| 20260503192524 | 67 | 152 | 5.0 | 13.0 | 0.00 | 0.00 | 0.00 | 42 | 991.8 |
| 20260503192202 | 67 | 152 | 5.0 | 13.0 | 0.00 | 0.00 | 0.00 | 42 | 991.8 |
| 20260503191802 | 67 | 157 | 4.0 | 9.0 | 0.00 | 0.00 | 0.00 | 42 | 991.8 |
| 20260503191755 | 68 | 152 | 4.0 | 7.0 | 0.00 | 0.00 | 0.00 | 42 | 991.8 |
| 20260503191000 | 68 | 131 | 4.0 | 10.0 | 0.00 | 0.00 | 0.00 | 42 | 991.8 |
| 20260503190558 | 68 | 141 | 4.0 | 7.0 | 0.00 | 0.00 | 0.00 | 42 | 991.7 |
| 20260503190158 | 68 | 134 | 4.0 | 9.0 | 0.00 | 0.00 | 0.00 | 42 | 991.7 |
| 20260503190104 | 69 | 139 | 4.0 | 7.0 | 0.00 | 0.00 | 0.00 | 41 | 991.7 |
| 20260503185758 | 69 | 139 | 4.0 | 7.0 | 0.00 | 0.00 | 0.00 | 41 | 991.7 |
| 20260503185358 | 69 | 136 | 4.0 | 7.0 | 0.00 | 0.00 | 0.00 | 41 | 991.6 |
| 20260503184957 | 69 | 142 | 3.0 | 5.0 | 0.00 | 0.00 | 0.00 | 41 | 991.6 |
| 20260503184555 | 70 | 138 | 3.0 | 8.0 | 0.00 | 0.00 | 0.00 | 40 | 991.6 |
| 20260503184156 | 70 | 126 | 2.0 | 3.0 | 0.00 | 0.00 | 0.00 | 40 | 991.6 |
| 20260503183753 | 70 | 161 | 2.0 | 6.0 | 0.00 | 0.00 | 0.00 | 39 | 991.6 |
| 20260503183353 | 71 | 149 | 3.0 | 7.0 | 0.00 | 0.00 | 0.00 | 39 | 991.5 |
| 20260503182953 | 71 | 160 | 3.0 | 6.0 | 0.00 | 0.00 | 0.00 | 38 | 991.5 |
| 20260503182923 | 71 | 159 | 4.0 | 9.0 | 0.00 | 0.00 | 0.00 | 38 | 991.4 |
| 20260503182551 | 71 | 159 | 4.0 | 9.0 | 0.00 | 0.00 | 0.00 | 38 | 991.4 |
| 20260503182151 | 72 | 153 | 3.0 | 6.0 | 0.00 | 0.00 | 0.00 | 38 | 991.4 |
| 20260503181954 | 73 | 145 | 2.0 | 4.0 | 0.00 | 0.00 | 0.00 | 37 | 991.4 |
| 20260503181751 | 73 | 145 | 2.0 | 4.0 | 0.00 | 0.00 | 0.00 | 37 | 991.4 |
| 20260503181351 | 73 | 151 | 4.0 | 7.0 | 0.00 | 0.00 | 0.00 | 36 | 991.3 |
| 20260503180951 | 74 | 153 | 3.0 | 6.0 | 0.00 | 0.00 | 0.00 | 36 | 991.3 |
| 20260503180549 | 75 | 141 | 2.0 | 6.0 | 0.00 | 0.00 | 0.00 | 35 | 991.3 |
| 20260503180146 | 76 | 150 | 4.0 | 6.0 | 0.00 | 0.00 | 0.00 | 34 | 991.3 |
| 20260503175747 | 76 | 164 | 3.0 | 6.0 | 0.00 | 0.00 | 0.00 | 34 | 991.3 |
| 20260503175339 | 77 | 147 | 4.0 | 8.0 | 0.00 | 0.00 | 0.00 | 33 | 991.2 |
| 20260503174938 | 78 | 139 | 5.0 | 8.0 | 0.00 | 0.00 | 0.00 | 32 | 991.2 |
| 20260503174548 | 81 | 184 | 4.0 | 8.0 | 0.00 | 0.00 | 0.00 | 30 | 991.2 |
| 20260503174535 | 78 | 139 | 6.0 | 12.0 | 0.00 | 0.00 | 0.00 | 32 | 991.2 |
| 20260503174134 | 79 | 142 | 4.0 | 9.0 | 0.00 | 0.00 | 0.00 | 31 | 991.2 |
| 20260503173745 | 81 | 139 | 5.0 | 10.0 | 0.00 | 0.00 | 0.00 | 29 | 991.2 |
| 20260503173334 | 80 | 142 | 5.0 | 9.0 | 0.00 | 0.00 | 0.00 | 30 | 991.3 |
| 20260503172934 | 81 | 184 | 4.0 | 8.0 | 0.00 | 0.00 | 0.00 | 30 | 991.2 |
| 20260503172532 | 81 | 139 | 5.0 | 10.0 | 0.00 | 0.00 | 0.00 | 29 | 991.2 |
| 20260503172132 | 82 | 169 | 4.0 | 13.0 | 0.00 | 0.00 | 0.00 | 29 | 991.2 |
| 20260503171732 | 82 | 152 | 6.0 | 11.0 | 0.00 | 0.00 | 0.00 | 29 | 991.2 |
| 20260503170932 | 82 | 151 | 5.0 | 8.0 | 0.00 | 0.00 | 0.00 | 29 | 991.2 |
| 20260503170530 | 82 | 153 | 5.0 | 11.0 | 0.00 | 0.00 | 0.00 | 29 | 991.2 |
| 20260503170130 | 82 | 161 | 5.0 | 12.0 | 0.00 | 0.00 | 0.00 | 29 | 991.2 |
| 20260503160120 | 84 | 150 | 8.0 | 14.0 | 0.00 | 0.00 | 0.00 | 27 | 991.3 |
| 20260503150904 | 84 | 134 | 9.0 | 15.0 | 0.00 | 0.00 | 0.00 | 29 | 991.5 |
| 20260503150502 | 83 | 130 | 7.0 | 12.0 | 0.00 | 0.00 | 0.00 | 29 | 991.5 |
| 20260503131247 | 73 | 146 | 7.0 | 11.0 | 0.00 | 0.00 | 0.00 | 36 | 992.6 |
| 20260503130847 | 73 | 139 | 6.0 | 10.0 | 0.00 | 0.00 | 0.00 | 36 | 992.6 |
| 20260503130444 | 73 | 201 | 5.0 | 10.0 | 0.00 | 0.00 | 0.00 | 36 | 992.7 |
| 20260503110823 | 70 | 188 | 3.0 | 6.0 | 0.00 | 0.00 | 0.00 | 39 | 993.5 |
| 20260503110421 | 70 | 168 | 4.0 | 8.0 | 0.00 | 0.00 | 0.00 | 38 | 993.5 |
| 20260503090354 | 66 | 183 | 3.0 | 6.0 | 0.00 | 0.00 | 0.00 | 42 | 994.7 |